FW1299 Weather Reports


Display with metric or nautical units.
time (UTC)temp
F
wind
direction
speed
MPH
gust
MPH
rain 1hr
in
rain 24hr
in
rain mn
in
humidity
%
barometer
mb
20260904121925 77 215 0.0 3.0 0.00 0.02 0.02 94 1012.0
20260904120923 76 264 1.0 3.0 0.00 0.02 0.02 95 1011.8
20260904115922 76 196 0.0 2.0 0.00 0.02 0.02 96 1011.8
20260904114921 74 269 0.0 4.0 0.00 0.02 0.02 98 1011.7
20260904113922 74 221 0.0 0.0 0.00 0.02 0.02 100 1011.8
20260904112922 73 203 0.0 0.0 0.00 0.02 0.02 100 1011.8
20260904111921 72 238 0.0 0.0 0.00 0.02 0.02 100 1011.7
20260904110922 72 238 0.0 0.0 0.00 0.02 0.02 100 1011.4
20260904105923 71 238 0.0 0.0 0.00 0.02 0.02 100 1011.3
20260904104917 71 253 0.0 0.0 0.00 0.02 0.02 100 1011.2
20260904103917 71 253 0.0 0.0 0.00 0.02 0.02 100 1011.2
20260904102917 70 253 0.0 0.0 0.00 0.02 0.02 99 1011.1
20260904101918 71 253 0.0 0.0 0.00 0.02 0.02 99 1010.9
20260904100917 71 253 0.0 0.0 0.00 0.02 0.02 98 1010.9
20260904095918 71 253 0.0 0.0 0.00 0.02 0.02 98 1011.0
20260904093915 72 253 0.0 0.0 0.00 0.02 0.02 98 1011.0
20260904092914 72 253 0.0 0.0 0.00 0.03 0.02 97 1011.1
20260904091914 72 253 0.0 0.0 0.00 0.03 0.02 97 1011.1
20260904084909 72 261 0.0 0.0 0.00 0.06 0.02 98 1011.0
20260904083910 72 243 0.0 0.0 0.00 0.06 0.02 98 1011.0
20260904081910 73 222 0.0 5.0 0.00 0.10 0.02 98 1011.1
20260904080911 73 282 0.0 1.0 0.00 0.11 0.02 98 1011.1
20260904075910 72 252 0.0 3.0 0.00 0.12 0.02 99 1011.0
20260904074910 72 287 0.0 2.0 0.00 0.12 0.02 100 1011.0
20260904073904 72 254 0.0 1.0 0.00 0.13 0.02 100 1010.9
20260904072903 72 230 0.0 0.0 0.00 0.13 0.02 100 1010.7
20260904071903 72 230 0.0 0.0 0.00 0.14 0.02 100 1010.7
20260904070906 72 230 0.0 0.0 0.00 0.14 0.02 99 1010.6
20260904065904 73 230 0.0 0.0 0.00 0.15 0.02 99 1010.6
20260904064902 73 230 0.0 0.0 0.02 0.16 0.02 98 1010.9
20260904063904 73 230 0.0 0.0 0.02 0.18 0.02 98 1010.8
20260904062905 74 230 0.0 0.0 0.02 0.20 0.02 97 1010.8
20260904060858 75 230 0.0 1.0 0.02 0.25 0.02 95 1011.3
20260904055857 76 264 1.0 7.0 0.02 0.26 0.02 95 1011.5
20260904054858 76 229 1.0 5.0 0.00 0.26 0.00 94 1011.3
20260904053857 76 246 0.0 4.0 0.00 0.28 0.00 96 1011.6
20260904052857 76 261 0.0 0.0 0.00 0.31 0.00 97 1011.8
20260904051857 76 239 0.0 0.0 0.00 0.33 0.00 98 1011.7
20260904044858 75 113 0.0 0.0 0.00 0.35 0.00 98 1011.7
20260904043852 75 113 0.0 0.0 0.00 0.36 0.00 97 1011.7
20260904041851 75 113 0.0 0.0 0.00 0.36 0.00 96 1011.9
20260904040852 76 113 0.0 0.0 0.00 0.36 0.00 96 1012.0
20260904034851 75 148 0.0 1.0 0.00 0.36 0.36 98 1012.2
20260904033848 74 257 0.0 1.0 0.00 0.36 0.36 99 1012.4
20260904030841 74 257 0.0 0.0 0.00 0.36 0.36 98 1012.0
20260904025840 74 257 0.0 0.0 0.00 0.36 0.36 98 1012.1
20260904023838 75 257 0.0 0.0 0.00 0.36 0.36 98 1012.3
20260904022839 75 257 0.0 0.0 0.00 0.36 0.36 98 1012.4
20260904021833 75 257 0.0 0.0 0.00 0.36 0.36 98 1012.5
20260904015830 75 257 0.0 0.0 0.00 0.36 0.36 98 1012.9
20260904014829 75 257 0.0 0.0 0.00 0.36 0.36 97 1013.0
20260904013831 75 257 0.0 0.0 0.00 0.36 0.36 97 1013.2
20260904011831 75 257 0.0 0.0 0.00 0.36 0.36 97 1013.2
20260904010829 75 257 0.0 0.0 0.00 0.36 0.36 96 1013.3
20260904005831 76 257 0.0 0.0 0.00 0.36 0.36 95 1012.9
20260904004824 76 257 0.0 0.0 0.00 0.36 0.36 95 1013.2
20260904003825 76 257 0.0 0.0 0.00 0.36 0.36 95 1012.8
20260904002823 76 257 0.0 0.0 0.00 0.36 0.36 93 1012.8
20260904001823 77 257 0.0 0.0 0.00 0.36 0.36 94 1012.4
20260904000823 77 257 0.0 0.0 0.00 0.37 0.36 93 1012.7
20260903234823 78 257 0.0 0.0 0.00 0.37 0.36 92 1012.4
20260903233823 79 257 0.0 1.0 0.00 0.37 0.36 92 1012.3
20260903231818 82 257 0.0 0.0 0.00 0.37 0.36 85 1012.2
20260903230817 84 257 0.0 0.0 0.00 0.37 0.36 82 1012.1
20260903225816 85 257 0.0 2.0 0.00 0.37 0.36 80 1012.1
20260903224820 88 259 0.0 1.0 0.00 0.37 0.36 78 1012.1
20260903223818 89 259 0.0 1.0 0.00 0.37 0.36 78 1012.1
20260903222818 88 236 0.0 1.0 0.00 0.37 0.36 79 1012.2
20260903221818 87 278 0.0 1.0 0.00 0.37 0.36 79 1012.2
20260903220818 87 250 0.0 3.0 0.00 0.37 0.36 75 1012.1
20260903215817 87 278 0.0 2.0 0.00 0.37 0.36 75 1012.1
20260903214815 88 273 0.0 2.0 0.00 0.37 0.36 73 1012.2
20260903213814 87 262 0.0 2.0 0.00 0.37 0.36 75 1012.0
20260903211813 87 238 0.0 1.0 0.00 0.37 0.36 75 1012.1
20260903210812 89 228 0.0 2.0 0.00 0.37 0.36 70 1012.2
20260903205813 89 150 0.0 4.0 0.00 0.37 0.36 72 1012.1
20260903204813 89 308 0.0 4.0 0.00 0.37 0.36 71 1012.3
20260903203813 88 242 1.0 6.0 0.00 0.37 0.36 72 1012.4
20260903202811 88 267 1.0 6.0 0.00 0.37 0.36 70 1012.5
20260903201812 89 250 1.0 5.0 0.00 0.37 0.36 72 1012.3
20260903200812 88 271 1.0 6.0 0.00 0.37 0.36 72 1012.3
20260903195806 88 267 1.0 4.0 0.00 0.37 0.36 73 1012.3
20260903194808 88 212 1.0 4.0 0.00 0.37 0.36 74 1012.3
20260903193806 88 240 1.0 4.0 0.00 0.37 0.36 74 1012.6
20260903192806 88 210 1.0 4.0 0.00 0.37 0.36 74 1012.7
20260903190807 87 272 1.0 6.0 0.00 0.37 0.36 78 1012.9
20260903185804 87 282 1.0 7.0 0.00 0.37 0.36 76 1012.9
20260903184802 87 155 0.0 4.0 0.00 0.37 0.36 77 1012.9
20260903183802 86 190 2.0 5.0 0.00 0.37 0.36 78 1013.1
20260903181805 86 246 1.0 5.0 0.00 0.37 0.36 79 1013.6
20260903174754 85 218 2.0 9.0 0.00 0.37 0.36 79 1014.0
20260903172757 84 255 3.0 9.0 0.00 0.37 0.36 82 1014.2
20260903165755 82 260 3.0 9.0 0.00 0.37 0.36 83 1014.5
20260903164749 82 207 2.0 7.0 0.00 0.37 0.36 84 1014.7
20260903163751 82 266 2.0 7.0 0.00 0.37 0.36 84 1015.0
20260903162749 82 202 2.0 7.0 0.00 0.37 0.36 88 1015.1
20260903161749 80 271 2.0 7.0 0.00 0.37 0.36 88 1015.2
20260903160747 80 213 2.0 6.0 0.00 0.37 0.36 88 1015.4
20260903154749 78 266 1.0 6.0 0.00 0.37 0.36 90 1015.6
20260903153749 78 276 2.0 6.0 0.00 0.37 0.36 90 1015.6
20260903152750 78 219 2.0 6.0 0.00 0.37 0.36 92 1015.9
20260903151743 77 265 2.0 7.0 0.00 0.37 0.36 93 1015.9
20260903150742 77 264 2.0 7.0 0.00 0.37 0.36 94 1016.0
20260903145743 76 193 2.0 7.0 0.00 0.37 0.36 96 1015.8
20260903144743 76 237 1.0 6.0 0.00 0.37 0.36 100 1015.8
20260903143742 74 210 2.0 7.0 0.00 0.37 0.36 100 1015.9
20260903142743 75 271 1.0 5.0 0.00 0.37 0.36 100 1015.7
20260903141742 74 238 1.0 5.0 0.00 0.37 0.36 100 1015.6
20260903135744 73 230 1.0 5.0 0.00 0.37 0.36 100 1015.3
20260903134737 73 287 1.0 4.0 0.00 0.37 0.36 100 1015.3
20260903133734 73 273 1.0 4.0 0.00 0.37 0.36 100 1015.3
20260903132734 72 262 0.0 3.0 0.00 0.38 0.36 100 1015.4
20260903131735 72 276 0.0 3.0 0.00 0.38 0.36 100 1015.5
20260903130737 72 248 0.0 3.0 0.00 0.38 0.36 100 1015.8
20260903125734 71 275 0.0 2.0 0.00 0.38 0.36 100 1015.7
20260903124734 71 261 0.0 4.0 0.00 0.39 0.36 100 1015.8
20260903123734 71 200 0.0 1.0 0.00 0.39 0.36 100 1015.6
20260903122729 70 191 0.0 1.0 0.00 0.39 0.36 100 1016.1